Location: LDNL
(36.4545°S, 141.6685°E)
Time: 15:52:12
(UTC+10:00)

Courier 1B Rocket - Pass Details

Date: 19 August 2022
Orbit: 920 x 1202 km, 28.2° (Epoch: 25 September)

Event Time Altitude Azimuth Distance (km) Brightness Sun altitude
Exits shadow 05:29:56 28° 302° (WNW) 2,105 6.3 -21.1°
Maximum altitude 05:33:15 40° 348° (NNW) 1,709 6.1 -20.4°
Drops below altitude 10° 05:40:19 10° 53° (NE) 3,087 8.4 -19.0°
Sets 05:43:17 0° 61° (ENE) 4,017 9.3 -18.4°
